Regional Weather Roundup
Issued by NWS

Home | Current Version | Previous Version | Text Only | Print | Product List | Glossary Off
Versions: 1 2 3 4 5 6 7 8 9 10 11 12 13 14 15 16 17 18 19 20 21 22 23 24 25 26 27 28 29 30 31 32 33 34 35 36 37 38 39 40 41 42 43 44 45 46 47 48 49 50

000
ASUS43 KLOT 190410
RWRIL

ILLINOIS REGIONAL WEATHER ROUNDUP
NATIONAL WEATHER SERVICE CHICAGO/ROMEOVILLE IL
1000 PM CST THU DEC 18 2014

NOTE: "FAIR" INDICATES FEW OR NO CLOUDS BELOW 12,000 FEET WITH NO
SIGNIFICANT WEATHER AND/OR OBSTRUCTIONS TO VISIBILITY.

* THESE STATIONS ARE NOT UNDER NWS QUALITY CONTROL. THEY ALSO MAY NOT
  REPORT WEATHER SUCH AS PRECIPITATION OR FOG.

ILZ001-002-007-009-015-016-024-190500-
NORTHWEST ILLINOIS

CITY           SKY/WX    TMP DP  RH WIND       PRES   REMARKS
MOLINE         PTCLDY    22  16  78 CALM      30.29S
STERLING*      PTCLDY    19  16  86 W3        30.29R
SAVANNA*       CLOUDY    24  20  85 CALM      30.29R
$$

ILZ003-004-008-010-011-017-018-190500-
NORTH CENTRAL ILLINOIS

CITY           SKY/WX    TMP DP  RH WIND       PRES   REMARKS
ROCKFORD       CLOUDY    27  19  72 W3        30.29R
FREEPORT*      CLOUDY    25  19  79 CALM      30.29R
ROCHELLE*      CLOUDY    25  18  75 CALM      30.28R
DE KALB*       CLOUDY    24  18  79 W3        30.25S
PERU*          CLEAR     21  17  85 W3        30.30R
$$

ILZ005-006-012>014-019>023-190500-
NORTHEAST ILLINOIS

CITY           SKY/WX    TMP DP  RH WIND       PRES   REMARKS
CHICAGO-OHARE  CLOUDY    28  20  71 NW5       30.24F WCI  23
CHICAGO-MIDWAY CLOUDY    30  20  66 NW7       30.25S WCI  23
AURORA         CLOUDY    27  20  75 W7        30.26F WCI  19
LANSING*       CLOUDY    27  20  76 W6        30.26S WCI  20
JOLIET*        CLOUDY    26  19  77 W5        30.27S WCI  20
WAUKEGAN       CLOUDY    27  23  85 NW6       30.24S WCI  20
DUPAGE AIRPORT CLOUDY    27  19  72 W6        30.24F WCI  20
KANKAKEE*      CLOUDY    24  20  87 W3        30.28S
WHEELING       CLOUDY    28  23  81 NW6       30.26F WCI  22
MORRIS*        CLOUDY    23  21  93 W6        30.26S WCI  16
ROMEOVILLE*    CLOUDY    26  20  79 W5        30.26S WCI  20
NORTHERLY ISL    N/A     30  21  69 W8          N/A  WCI  23
$$

LMZ740>746-190500-
SOUTHERN LAKE MICHIGAN

STATION/POSITION SKY/WX   TEMP    WIND        PRES    VSBY  WAVE
                          AIR SEA DIR/SP/G                  HT/PER
                          (F)     (DEG/KT/KT) (MB)    (MI)  (FT/S)
WAUKEGAN HARBOR            28     330/  4/  7   N/A
HARRISON CRIB              28     300/  8/ 10   N/A
BURNHAM HARBOR             30     300/  6/  8   N/A
CALUMET HARBOR             28     230/  5/  6 1023.2S
$$

ILZ025>027-034>036-040-047-049-050-058-095>099-190500-
WEST-CENTRAL ILLINOIS

CITY           SKY/WX    TMP DP  RH WIND       PRES   REMARKS
QUINCY         CLOUDY    28  23  81 CALM      30.29R
GALESBURG*     CLOUDY    26  22  83 NE3       30.28S
MACOMB*        CLOUDY    28  24  82 CALM      30.31S
JACKSONVILLE*  CLOUDY    31  26  81 CALM      30.29S
PITTSFIELD*    CLOUDY    30  26  87 CALM      30.30R
$$

ILZ028>032-037-038-041>044-048-051>054-059>061-190500-
CENTRAL ILLINOIS

CITY           SKY/WX    TMP DP  RH WIND       PRES   REMARKS
PONTIAC        MOCLDY    22  20  89 CALM      30.29S
BLOOMINGTON    PTCLDY    22  19  88 CALM      30.28R
DECATUR        MOCLDY    26  22  84 N5        30.29R WCI  20
PEORIA         CLEAR     25  18  74 CALM      30.29R
LACON*         PTCLDY    18  16  90 CALM      30.29S
LINCOLN*       CLOUDY    28  23  81 CALM      30.30S
SPRINGFIELD    CLOUDY    29  22  75 N3        30.29S
TAYLORVILLE    CLOUDY    30  27  86 CALM      30.29R
$$

ILZ033-039-045-046-055>057-062-063-190500-
EAST-CENTRAL ILLINOIS

CITY           SKY/WX    TMP DP  RH WIND       PRES   REMARKS
CHAMPAIGN      CLEAR     25  20  81 N5        30.28R WCI  19
DANVILLE*      PTCLDY    25  22  90 CALM      30.25R
RANTOUL*       MOCLDY    26  22  85 N3        30.28R
MATTOON        MOCLDY    26  23  88 N5        30.27R WCI  20
PARIS*         CLOUDY    29  26  87 NW5       30.29R WCI  24
$$

ILZ079-100>102-190500-
SOUTHWEST ILLINOIS

CITY           SKY/WX    TMP DP  RH WIND       PRES   REMARKS
ALTON          CLOUDY    32  26  81 CALM      30.29S
BELLEVILLE     CLOUDY    33  28  81 NE2       30.29R
CAHOKIA*       CLOUDY    34  27  75 E5        30.29R WCI  30
SPARTA*        CLOUDY    32  28  86 CALM      30.29S
$$

ILZ064>066-069>071-074>076-080>082-084>086-088>090-092>094-190500-
SOUTH-CENTRAL ILLINOIS

CITY           SKY/WX    TMP DP  RH WIND       PRES   REMARKS
CARBONDALE     CLOUDY    33  29  85 CALM      30.29R
CAIRO*         CLOUDY    37  33  87 N3        30.28R
EFFINGHAM*     CLOUDY    31  23  73 CALM      30.30R
MARION         CLOUDY    34  30  86 N3        30.29S
MT. VERNON     CLOUDY    30  23  74 CALM      30.29R
CENTRALIA*     CLOUDY    32  25  77 CALM      30.28S
SALEM*         CLOUDY    33  27  80 CALM      30.29R
METROPOLIS*    CLOUDY    35  35  99 N3        30.27R FOG
$$

ILZ067-068-072-073-078-083-087-091-190500-
SOUTHEAST ILLINOIS

CITY           SKY/WX    TMP DP  RH WIND       PRES   REMARKS
LAWRENCEVILLE  CLOUDY    31  24  75 N3        30.29R
FLORA*         CLEAR     31  26  82 CALM      30.29S
FAIRFIELD*     CLOUDY    31  26  80 CALM      30.28R
HARRISBURG*    CLOUDY    33  28  84 N5        30.30S WCI  28
ROBINSON*      CLOUDY    30  26  83 CALM      30.31R
CARMI*         CLOUDY    33  29  85 N3        30.29S
$$

ABBREVIATIONS USED IN REMARKS
   TC - TEMPERATURE IN CELSIUS
  WCI - WIND CHILL INDEX
   HX - HEAT INDEX
  VSB - VISIBILITY
$$




USA.gov is the U.S. government's official web portal to all federal, state and local government web resources and services.